map of KMWK home
KMWK - Airport
Location
City:  Mount Airy, North Carolina, United States
Name:Mount Airy/Surry County Airport
ICAO:KMWK
FAA LID:MWK

Details
Type:Airport (Airfield)
Use:Public/Civil
Latitude:3627'41"N (36.461362)
Longitude:8033'12"W (-80.553209)
Datum:WGS 1984
Elevation:1268 ft (386 m)
Variation:8.14W (WMM2015v2 magnetic declination)
-0.02 annual change
Runways:1
Longest:5500 × 75 ft (1676 × 23 m), paved

Time
Time Zone:UTC-5 (DST-4)
Local Time:

Weather
METAR:KMWK 041400Z AUTO 00000KT 10SM CLR 08/05 A3010 RMK AO2 T00790047

Related Locations
Nearby:
Farthest:YAUG: 11545 mi / 18581 km
Augusta [Augusta Airport], WA, AU

Find:

   beyond  
but within

Other Information
Maps:
NOTAMs:
Links:
Sources:

  
  • flag of United States
  • flag of North Carolina
  

Sectional Chart

Flight Planning
at skyvector.com

Satellite Image

Google Maps Satellite view

 

Copyright © 2004-2019 Karl L. Swartz. All rights reserved.
The Great Circle Mapper name and logo are trademarks of the Great Circle Mapper.
All other trademarks mentioned herein belong to their respective owners.
Please see credits for attibutions and further copyright information.

  Follow gcmap on Facebook Follow gcmap on Twitter GCmap on LinkedIn

hCard Microformat

Geo Microformat